Location: Great Falls Observatory Park
(38.9954°N, 77.3130°W)
Time: 18:15:52
(UTC-05:00)

ISS - Pass Details

Date: 26 October 2019
Orbit: 412 x 421 km, 51.6° (Epoch: 14 November)

Event Time Altitude Azimuth Distance (km) Brightness Sun altitude
Exits shadow 06:53:50 - 260° (W) 1,593 -1.4 -7.7°
Reaches altitude 10° 06:54:04 10° 261° (W) 1,502 -1.6 -7.6°
Maximum altitude 06:57:11 34° 329° (NNW) 710 -2.9 -7.0°
Drops below altitude 10° 07:00:19 10° 37° (NE) 1,506 -0.6 -6.4°
Sets 07:02:33 0° 46° (NE) 2,371 0.6 -6.0°
